GW1183 Weather Reports


Display with metric or nautical units.
time (UTC)temp
F
wind
direction
speed
MPH
gust
MPH
rain 1hr
in
rain 24hr
in
rain mn
in
humidity
%
barometer
mb
20260506003225 46 167 0.0 0.0 0.00 0.03 0.03 76 1007.8
20260506002721 46 177 0.0 0.0 0.00 0.03 0.03 77 1007.8
20260506002218 46 183 0.0 0.0 0.00 0.03 0.03 77 1007.9
20260506001714 47 182 0.0 0.0 0.00 0.03 0.03 77 1007.6
20260506001211 47 192 0.0 0.0 0.00 0.03 0.03 76 1007.6
20260506000708 47 202 0.0 0.0 0.00 0.03 0.03 76 1007.7
20260506000206 47 205 0.0 0.0 0.00 0.03 0.03 74 1007.8
20260505235703 47 188 0.0 0.0 0.00 0.03 0.03 73 1007.8
20260505235201 47 180 0.0 0.0 0.00 0.03 0.03 72 1007.8
20260505234657 47 186 0.0 0.0 0.00 0.03 0.03 71 1008.0
20260505234154 47 188 0.0 0.0 0.00 0.03 0.03 72 1007.7
20260505233651 47 193 0.0 0.0 0.00 0.03 0.03 69 1007.6
20260505233149 47 195 0.0 0.0 0.00 0.03 0.03 70 1007.8
20260505232646 47 203 0.0 0.0 0.00 0.03 0.03 69 1007.6
20260505232144 47 189 0.0 0.0 0.00 0.03 0.03 70 1007.9
20260505231640 47 192 0.0 0.0 0.00 0.03 0.03 69 1007.8
20260505231139 48 201 0.0 0.0 0.00 0.03 0.03 67 1007.8
20260505230637 48 198 0.0 0.0 0.00 0.03 0.03 69 1007.6
20260505230133 47 196 0.0 0.0 0.00 0.03 0.03 68 1007.6
20260505225629 47 203 0.0 0.0 0.00 0.03 0.03 69 1007.9
20260505225125 47 204 0.0 0.0 0.00 0.03 0.03 67 1007.7
20260505224622 47 194 0.0 0.0 0.00 0.03 0.03 69 1007.8
20260505224120 47 195 0.0 0.0 0.00 0.03 0.03 68 1007.5
20260505223617 47 201 0.0 0.0 0.00 0.03 0.03 68 1007.7
20260505223113 47 206 0.0 0.0 0.00 0.03 0.03 68 1007.9
20260505222609 47 226 0.0 0.0 0.00 0.03 0.03 70 1008.0
20260505222105 47 192 0.0 0.0 0.00 0.03 0.03 70 1007.9
20260505221603 47 212 0.0 0.0 0.00 0.03 0.03 71 1008.0
20260505221059 47 190 0.0 0.0 0.00 0.03 0.03 71 1008.2
20260505220556 47 209 0.0 0.0 0.00 0.03 0.03 68 1008.2
20260505220054 47 226 0.0 0.0 0.00 0.03 0.03 67 1008.0
20260505215552 47 211 0.0 0.0 0.00 0.03 0.03 69 1007.7
20260505215049 47 202 0.0 0.0 0.00 0.03 0.03 71 1007.9
20260505214548 47 213 0.0 0.0 0.00 0.03 0.03 71 1007.6
20260505214044 47 231 0.0 0.0 0.00 0.03 0.03 70 1007.9
20260505213542 47 208 0.0 0.0 0.00 0.03 0.03 70 1007.8
20260505213038 47 212 0.0 0.0 0.00 0.03 0.03 70 1008.0
20260505212535 47 238 0.0 0.0 0.00 0.03 0.03 68 1008.1
20260505212032 47 211 0.0 0.0 0.00 0.03 0.03 71 1007.9
20260505211529 47 215 0.0 0.0 0.00 0.03 0.03 71 1008.1
20260505211025 47 217 0.0 0.0 0.00 0.03 0.03 70 1007.8
20260505210522 47 206 0.0 0.0 0.00 0.03 0.03 71 1007.8
20260505210020 47 257 0.0 0.0 0.00 0.03 0.03 71 1007.7
20260505205518 46 184 0.0 0.0 0.00 0.03 0.03 72 1007.8
20260505205014 46 279 2.0 3.0 0.00 0.03 0.03 69 1008.0
20260505204512 47 226 1.0 2.0 0.00 0.03 0.03 72 1008.0
20260505204009 47 206 0.0 0.0 0.00 0.03 0.03 72 1007.9
20260505203506 46 255 0.0 1.0 0.00 0.03 0.03 72 1008.0
20260505203002 46 226 1.0 1.0 0.00 0.03 0.03 70 1008.0
20260505202459 46 209 0.0 0.0 0.00 0.03 0.03 73 1007.8
20260505201954 46 240 1.0 1.0 0.00 0.03 0.03 73 1007.8
20260505201452 46 191 0.0 0.0 0.00 0.03 0.03 73 1007.8
20260505200949 46 212 0.0 0.0 0.00 0.03 0.03 74 1007.8
20260505200447 46 224 0.0 1.0 0.00 0.03 0.03 75 1007.9
20260505195943 46 211 1.0 1.0 0.00 0.03 0.03 76 1007.8
20260505195440 46 245 3.0 5.0 0.00 0.03 0.03 74 1008.0
20260505194937 46 203 0.0 1.0 0.00 0.03 0.03 76 1007.9
20260505194434 46 229 3.0 5.0 0.00 0.03 0.03 77 1007.9
20260505193934 47 236 0.0 1.0 0.00 0.03 0.03 77 1007.7
20260505193432 46 290 2.0 2.0 0.00 0.03 0.03 77 1007.8
20260505192930 46 231 1.0 1.0 0.00 0.03 0.03 79 1007.7
20260505192428 46 225 0.0 0.0 0.00 0.03 0.03 78 1007.8
20260505191925 46 238 1.0 3.0 0.00 0.03 0.03 78 1007.6
20260505191424 46 242 0.0 0.0 0.00 0.03 0.03 80 1007.6
20260505190920 45 227 0.0 0.0 0.00 0.03 0.03 80 1007.4
20260505190415 45 277 2.0 2.0 0.00 0.03 0.03 81 1007.3
20260505185911 45 207 0.0 0.0 0.00 0.03 0.03 84 1007.1
20260505185409 45 184 0.0 0.0 0.00 0.03 0.03 83 1007.3
20260505184904 45 217 0.0 0.0 0.00 0.03 0.03 82 1007.5
20260505184401 45 230 0.0 0.0 0.00 0.03 0.03 83 1007.2
20260505183858 45 187 0.0 1.0 0.00 0.03 0.03 85 1007.1
20260505183355 45 190 0.0 0.0 0.00 0.03 0.03 85 1007.2
20260505182852 45 71 1.0 2.0 0.07 0.03 0.03 85 1007.2
20260505182349 45 193 0.0 0.0 0.07 0.03 0.03 84 1007.3
20260505181845 45 16 1.0 2.0 0.05 0.02 0.02 83 1007.2
20260505181343 46 263 2.0 2.0 0.12 0.02 0.02 82 1007.0
20260505180839 46 358 0.0 1.0 0.07 0.01 0.01 80 1006.9
20260505180336 47 313 1.0 2.0 0.00 0.00 0.00 77 1007.1
20260505175832 48 38 2.0 3.0 0.00 0.00 0.00 75 1006.7
20260505175329 49 17 1.0 2.0 0.00 0.00 0.00 72 1006.7
20260505174825 49 74 0.0 1.0 0.00 0.00 0.00 68 1006.5
20260505174323 50 177 0.0 1.0 0.00 0.00 0.00 65 1006.4
20260505173819 51 28 3.0 3.0 0.00 0.00 0.00 60 1006.2
20260505173315 51 300 0.0 0.0 0.00 0.00 0.00 60 1006.2
20260505172813 51 323 1.0 1.0 0.00 0.00 0.00 58 1006.2
20260505172310 51 208 4.0 5.0 0.00 0.00 0.00 59 1005.9
20260505171804 51 277 1.0 1.0 0.00 0.00 0.00 57 1006.1
20260505171301 52 159 0.0 0.0 0.00 0.00 0.00 56 1006.2
20260505170758 52 21 2.0 2.0 0.00 0.00 0.00 55 1006.2
20260505170255 52 24 0.0 1.0 0.00 0.00 0.00 56 1006.2
20260505165755 52 355 2.0 2.0 0.00 0.00 0.00 55 1006.1
20260505165252 53 272 1.0 2.0 0.00 0.00 0.00 54 1006.0
20260505164748 53 126 0.0 0.0 0.00 0.00 0.00 55 1006.3
20260505164245 53 325 1.0 1.0 0.00 0.00 0.00 55 1006.0
20260505163743 52 157 1.0 1.0 0.00 0.00 0.00 56 1006.0
20260505163241 52 214 3.0 3.0 0.00 0.00 0.00 55 1005.8
20260505162739 52 111 0.0 1.0 0.00 0.00 0.00 55 1005.9
20260505162235 53 130 1.0 2.0 0.00 0.00 0.00 55 1005.8
20260505161732 53 332 3.0 5.0 0.00 0.00 0.00 56 1005.7
20260505161230 52 32 1.0 1.0 0.00 0.00 0.00 56 1005.8
20260505160727 52 19 1.0 2.0 0.00 0.00 0.00 56 1005.6
20260505160225 53 299 1.0 1.0 0.00 0.00 0.00 55 1005.7
20260505153204 53 226 2.0 2.0 0.00 0.00 0.00 56 1006.0
20260505152700 54 211 1.0 1.0 0.00 0.00 0.00 55 1005.8
20260505152156 54 4 4.0 7.0 0.00 0.00 0.00 56 1005.7
20260505151652 53 258 1.0 2.0 0.00 0.00 0.00 57 1005.6
20260505151149 53 33 3.0 5.0 0.00 0.00 0.00 56 1005.1
20260505150645 53 320 3.0 3.0 0.00 0.00 0.00 57 1005.1
20260505150143 52 216 3.0 5.0 0.00 0.00 0.00 57 1004.5
20260505140611 51 204 1.0 1.0 0.00 0.00 0.00 63 1003.5
20260505140108 51 106 2.0 2.0 0.00 0.00 0.00 63 1003.6
20260505125024 48 329 2.0 2.0 0.00 0.00 0.00 78 1003.3
20260505124521 47 10 2.0 3.0 0.00 0.00 0.00 78 1003.6
20260505124017 47 7 3.0 3.0 0.00 0.00 0.00 76 1003.2
20260505123514 48 358 3.0 3.0 0.00 0.00 0.00 79 1003.1
20260505123010 48 5 5.0 5.0 0.00 0.00 0.00 80 1003.0
20260505122507 48 3 2.0 2.0 0.00 0.00 0.00 79 1002.6
20260505122004 48 14 3.0 3.0 0.00 0.00 0.00 80 1002.5
20260505121501 48 331 3.0 3.0 0.00 0.00 0.00 82 1002.4
20260505120957 49 8 5.0 6.0 0.00 0.00 0.00 86 1002.3
20260505120453 50 310 1.0 2.0 0.00 0.00 0.00 86 1001.9
20260505115952 50 13 4.0 6.0 0.00 0.00 0.00 86 1002.2
20260505115449 51 11 3.0 5.0 0.00 0.00 0.00 85 1002.1
20260505114947 52 296 1.0 2.0 0.00 0.00 0.00 85 1002.0
20260505114443 53 351 3.0 3.0 0.00 0.00 0.00 85 1001.5
20260505113940 53 192 0.0 0.0 0.00 0.00 0.00 84 1001.3
20260505113436 53 320 1.0 1.0 0.00 0.00 0.00 84 1001.3
20260505112932 53 221 0.0 0.0 0.00 0.00 0.00 83 1001.0
20260505112430 54 242 2.0 2.0 0.00 0.00 0.00 82 1001.0
20260505111926 54 255 1.0 2.0 0.00 0.00 0.00 82 1001.1
20260505111421 55 286 3.0 5.0 0.00 0.00 0.00 81 1001.1
20260505110917 55 246 5.0 6.0 0.00 0.00 0.00 83 1001.2
20260505110414 55 242 3.0 5.0 0.00 0.00 0.00 83 1001.0
20260505101845 56 249 6.0 11.0 0.00 0.00 0.00 81 1000.1
20260505101340 56 250 5.0 5.0 0.00 0.00 0.00 81 1000.2
20260505100836 56 238 5.0 6.0 0.00 0.00 0.00 81 1000.1
20260505100333 56 243 6.0 7.0 0.00 0.00 0.00 80 999.7
20260505095828 56 235 3.0 5.0 0.00 0.00 0.00 80 999.7
20260505095326 56 212 5.0 7.0 0.00 0.00 0.00 80 999.6
20260505094822 56 224 8.0 10.0 0.00 0.00 0.00 80 999.6
20260505094319 56 228 7.0 8.0 0.00 0.00 0.00 80 999.4
20260505093814 56 245 7.0 10.0 0.00 0.00 0.00 80 999.7
20260505093312 56 262 6.0 7.0 0.00 0.00 0.00 80 999.6
20260505092808 56 185 6.0 6.0 0.00 0.00 0.00 80 999.4
20260505092308 57 223 5.0 6.0 0.00 0.00 0.00 80 999.4
20260505091804 57 220 5.0 7.0 0.00 0.00 0.00 80 999.2
20260505091303 57 194 7.0 8.0 0.00 0.00 0.00 80 999.2
20260505090800 57 244 4.0 5.0 0.00 0.00 0.00 79 999.2
20260505090258 57 240 7.0 8.0 0.00 0.00 0.00 79 999.1
20260505085755 57 220 7.0 10.0 0.00 0.00 0.00 80 999.1
20260505085253 57 194 5.0 7.0 0.00 0.00 0.00 80 999.3
20260505084750 57 221 9.0 9.0 0.00 0.00 0.00 80 999.3
20260505084249 57 211 9.0 11.0 0.00 0.00 0.00 80 998.9
20260505083746 57 207 7.0 7.0 0.00 0.00 0.00 80 999.0
20260505083242 57 197 5.0 7.0 0.00 0.00 0.00 80 998.9
20260505082739 57 262 4.0 7.0 0.00 0.00 0.00 80 999.0
20260505082236 57 184 3.0 3.0 0.00 0.00 0.00 80 998.9
20260505081732 57 216 6.0 7.0 0.00 0.00 0.00 80 999.0
20260505081229 58 215 5.0 6.0 0.00 0.00 0.00 79 998.9
20260505080726 57 204 7.0 9.0 0.00 0.00 0.00 80 999.1
20260505080221 57 216 6.0 8.0 0.00 0.00 0.00 80 999.2
20260505075717 58 209 5.0 6.0 0.00 0.00 0.00 78 999.4
20260505075215 58 218 5.0 7.0 0.00 0.00 0.00 77 999.4
20260505074712 58 201 10.0 13.0 0.00 0.00 0.00 76 999.5
20260505074209 58 216 5.0 7.0 0.00 0.00 0.00 76 999.6
20260505073707 58 221 7.0 9.0 0.00 0.00 0.00 76 999.4
20260505073205 58 245 5.0 6.0 0.00 0.00 0.00 76 999.4
20260505072700 58 219 5.0 8.0 0.00 0.00 0.00 75 999.5
20260505072156 59 293 5.0 6.0 0.00 0.00 0.00 75 999.1
20260505071652 59 243 5.0 6.0 0.00 0.00 0.00 74 999.3
20260505071150 59 226 7.0 10.0 0.00 0.00 0.00 73 999.4
20260505070647 59 237 7.0 8.0 0.00 0.00 0.00 73 999.5
20260505070143 60 200 8.0 10.0 0.00 0.00 0.00 73 999.4
20260505065639 60 196 6.0 7.0 0.00 0.00 0.00 72 999.2
20260505065136 60 235 9.0 13.0 0.00 0.00 0.00 72 999.8
20260505064633 60 206 11.0 13.0 0.00 0.00 0.00 72 999.6
20260505064131 60 206 9.0 11.0 0.00 0.00 0.00 72 999.6
20260505063629 60 214 13.0 15.0 0.00 0.00 0.00 72 999.6
20260505063124 59 255 8.0 10.0 0.00 0.00 0.00 72 999.7
20260505062621 59 231 7.0 8.0 0.00 0.00 0.00 73 999.7
20260505062118 59 181 7.0 9.0 0.00 0.00 0.00 73 999.8
20260505061615 60 226 9.0 9.0 0.00 0.00 0.00 73 999.9
20260505061113 60 202 11.0 15.0 0.00 0.00 0.00 72 999.8
20260505060611 60 212 12.0 14.0 0.00 0.00 0.00 72 999.9
20260505060107 60 200 11.0 15.0 0.00 0.00 0.00 73 999.9
20260505055603 60 235 8.0 11.0 0.00 0.00 0.00 73 999.9
20260505055059 60 190 9.0 11.0 0.00 0.00 0.00 72 999.8
20260505054557 60 211 9.0 11.0 0.00 0.00 0.00 72 999.9
20260505054055 60 209 14.0 18.0 0.00 0.00 0.00 73 1000.1
20260505053551 60 193 10.0 11.0 0.00 0.00 0.00 72 1000.2
20260505053048 60 211 11.0 13.0 0.00 0.00 0.00 71 1000.4
20260505052545 60 204 9.0 11.0 0.00 0.00 0.00 71 1000.4
20260505052043 60 211 10.0 11.0 0.00 0.00 0.00 70 1000.4
20260505051539 60 214 9.0 11.0 0.00 0.00 0.00 70 1000.4
20260505051038 60 215 10.0 14.0 0.00 0.00 0.00 71 1000.2
20260505050535 60 218 11.0 15.0 0.00 0.00 0.00 71 1000.3
20260505041503 60 199 14.0 15.0 0.00 0.00 0.00 72 999.9
20260505041001 60 202 9.0 10.0 0.00 0.00 0.00 72 999.9
20260505040458 59 244 10.0 11.0 0.00 0.00 0.00 73 1000.1
20260505035954 60 222 11.0 13.0 0.00 0.01 0.01 72 1000.3
20260505035450 60 152 9.0 10.0 0.00 0.01 0.01 72 1000.4
20260505034948 60 199 9.0 10.0 0.00 0.01 0.01 71 1000.3
20260505034444 60 199 10.0 11.0 0.00 0.01 0.01 71 1000.2
20260505033941 60 210 11.0 13.0 0.00 0.01 0.01 71 1000.3
20260505033438 60 220 13.0 17.0 0.00 0.01 0.01 72 1000.6
20260505032936 60 230 9.0 11.0 0.00 0.01 0.01 71 1000.4
20260505032433 60 245 8.0 8.0 0.00 0.01 0.01 72 1000.5
20260505031929 60 223 10.0 14.0 0.00 0.01 0.01 73 1000.5
20260505031427 60 236 9.0 11.0 0.00 0.01 0.01 73 1000.7
20260505030924 60 231 7.0 9.0 0.00 0.01 0.01 73 1000.7
20260505030419 60 226 7.0 9.0 0.00 0.01 0.01 72 1000.7
20260505025915 60 220 9.0 10.0 0.00 0.01 0.01 71 1000.7
20260505025413 61 241 8.0 10.0 0.00 0.01 0.01 69 1000.8
20260505024911 61 219 10.0 11.0 0.00 0.01 0.01 68 1000.6
20260505024408 61 241 11.0 15.0 0.00 0.01 0.01 67 1000.9
20260505023905 61 222 15.0 21.0 0.00 0.01 0.01 67 1000.7
20260505023402 61 200 10.0 13.0 0.00 0.01 0.01 68 1000.8
20260505022859 60 185 13.0 16.0 0.00 0.01 0.01 68 1001.0
20260505022356 60 212 12.0 15.0 0.00 0.01 0.01 68 1000.9
20260505021854 61 214 8.0 9.0 0.00 0.01 0.01 67 1000.6
20260505021350 61 190 7.0 8.0 0.00 0.01 0.01 67 1000.7
20260505020846 61 231 8.0 10.0 0.00 0.01 0.01 67 1000.7
20260505020342 61 234 8.0 9.0 0.00 0.01 0.01 65 1000.7
20260505015839 62 207 12.0 16.0 0.00 0.01 0.01 65 1000.6
20260505015336 61 198 13.0 16.0 0.00 0.01 0.01 65 1000.7
20260505014833 62 208 8.0 9.0 0.00 0.01 0.01 64 1000.7
20260505014330 62 225 8.0 9.0 0.00 0.01 0.01 63 1000.9
20260505013826 62 220 10.0 13.0 0.00 0.01 0.01 62 1000.7
20260505013324 62 174 12.0 15.0 0.00 0.01 0.01 61 1000.5
20260505012822 62 218 9.0 13.0 0.00 0.01 0.01 62 1000.4
20260505012320 62 210 10.0 13.0 0.00 0.01 0.01 61 1000.6
20260505011815 63 194 9.0 11.0 0.00 0.01 0.01 61 1000.4
20260505011312 63 215 9.0 13.0 0.00 0.01 0.01 60 1000.5
20260505010808 63 197 8.0 10.0 0.00 0.01 0.01 60 1000.3
20260505010304 63 218 11.0 15.0 0.00 0.01 0.01 59 1000.3
20260505005801 63 205 9.0 10.0 0.00 0.01 0.01 59 1000.5
20260505005258 63 204 8.0 10.0 0.00 0.01 0.01 58 1000.4
20260505004755 63 201 11.0 13.0 0.00 0.01 0.01 57 1000.5
20260505004251 64 207 8.0 11.0 0.00 0.01 0.01 57 1000.4
20260505003749 64 185 8.0 11.0 0.00 0.01 0.01 56 1000.6